TimeCDT,TemperatureF,Dew PointF,Humidity,Sea Level PressureIn,VisibilityMPH,Wind Direction,Wind SpeedMPH,Gust SpeedMPH,PrecipitationIn,Events,Conditions,WindDirDegrees,DateUTC
12:15 AM,77.0,57.2,50,30.28,10.0,SE,6.9,-,N/A,,Partly Cloudy,130,2013-07-16 05:15:00
12:35 AM,77.0,57.2,50,30.28,10.0,SE,8.1,-,N/A,,Clear,140,2013-07-16 05:35:00
12:55 AM,77.0,57.2,50,30.28,10.0,SSE,8.1,-,N/A,,Clear,150,2013-07-16 05:55:00
1:15 AM,75.2,57.2,53,30.27,10.0,SSE,6.9,-,N/A,,Clear,150,2013-07-16 06:15:00
1:35 AM,75.2,57.2,53,30.27,10.0,SSE,6.9,-,N/A,,Clear,150,2013-07-16 06:35:00
1:55 AM,75.2,57.2,53,30.27,10.0,SSE,5.8,-,N/A,,Clear,160,2013-07-16 06:55:00
2:15 AM,75.2,57.2,53,30.27,10.0,SSE,5.8,-,N/A,,Clear,160,2013-07-16 07:15:00
2:35 AM,75.2,57.2,53,30.27,10.0,SSE,3.5,-,N/A,,Clear,150,2013-07-16 07:35:00
2:55 AM,73.4,57.2,57,30.27,10.0,SSE,4.6,-,N/A,,Clear,150,2013-07-16 07:55:00
3:15 AM,73.4,57.2,57,30.27,10.0,SE,3.5,-,N/A,,Clear,140,2013-07-16 08:15:00
3:35 AM,73.4,57.2,57,30.27,8.0,SE,5.8,-,N/A,,Clear,130,2013-07-16 08:35:00
3:55 AM,73.4,57.2,57,30.28,7.0,SE,3.5,-,N/A,,Clear,140,2013-07-16 08:55:00
4:15 AM,71.6,57.2,60,30.28,6.0,ESE,3.5,-,N/A,,Clear,110,2013-07-16 09:15:00
4:35 AM,71.6,57.2,60,30.28,6.0,Calm,Calm,-,N/A,,Clear,0,2013-07-16 09:35:00
4:55 AM,71.6,57.2,60,30.28,7.0,ESE,3.5,-,N/A,,Clear,120,2013-07-16 09:55:00
5:15 AM,73.4,57.2,57,30.28,7.0,SE,4.6,-,N/A,,Clear,130,2013-07-16 10:15:00
5:35 AM,71.6,57.2,60,30.29,5.0,SE,3.5,-,N/A,,Clear,140,2013-07-16 10:35:00
5:55 AM,73.4,59.0,61,30.30,3.0,SSE,5.8,-,N/A,,Clear,150,2013-07-16 10:55:00
6:15 AM,73.4,59.0,61,30.30,3.0,SSE,5.8,-,N/A,,Clear,150,2013-07-16 11:15:00
6:35 AM,73.4,60.8,65,30.30,3.0,South,5.8,-,N/A,,Clear,170,2013-07-16 11:35:00
6:55 AM,73.4,60.8,65,30.31,4.0,South,6.9,-,N/A,,Clear,170,2013-07-16 11:55:00
7:15 AM,75.2,62.6,65,30.31,7.0,South,5.8,-,N/A,,Clear,170,2013-07-16 12:15:00
7:35 AM,77.0,60.8,57,30.32,10.0,South,5.8,-,N/A,,Clear,170,2013-07-16 12:35:00
7:55 AM,78.8,62.6,57,30.32,10.0,South,5.8,-,N/A,,Clear,180,2013-07-16 12:55:00
8:15 AM,78.8,62.6,57,30.32,10.0,South,6.9,-,N/A,,Clear,190,2013-07-16 13:15:00
8:35 AM,80.6,62.6,54,30.32,10.0,South,5.8,-,N/A,,Clear,190,2013-07-16 13:35:00
8:55 AM,80.6,62.6,54,30.33,10.0,SSW,5.8,-,N/A,,Clear,200,2013-07-16 13:55:00
9:15 AM,80.6,60.8,51,30.33,10.0,WSW,5.8,-,N/A,,Clear,240,2013-07-16 14:15:00
9:35 AM,82.4,60.8,48,30.32,10.0,SW,8.1,-,N/A,,Clear,230,2013-07-16 14:35:00
9:55 AM,82.4,60.8,48,30.32,10.0,SW,9.2,-,N/A,,Clear,220,2013-07-16 14:55:00
10:15 AM,82.4,59.0,45,30.32,10.0,SW,4.6,-,N/A,,Partly Cloudy,220,2013-07-16 15:15:00
10:35 AM,84.2,60.8,45,30.33,10.0,WSW,6.9,-,N/A,,Scattered Clouds,240,2013-07-16 15:35:00
10:55 AM,84.2,59.0,42,30.33,10.0,WSW,4.6,-,N/A,,Mostly Cloudy,250,2013-07-16 15:55:00
11:15 AM,84.2,57.2,40,30.33,10.0,SSW,4.6,-,N/A,,Partly Cloudy,210,2013-07-16 16:15:00
11:35 AM,86.0,57.2,37,30.33,10.0,WSW,6.9,-,N/A,,Partly Cloudy,250,2013-07-16 16:35:00
11:55 AM,86.0,57.2,37,30.32,10.0,SW,6.9,-,N/A,,Partly Cloudy,220,2013-07-16 16:55:00
12:15 PM,87.8,57.2,35,30.32,10.0,SW,4.6,-,N/A,,Clear,220,2013-07-16 17:15:00
12:35 PM,87.8,57.2,35,30.32,3.0,South,8.1,-,N/A,,Clear,190,2013-07-16 17:35:00
12:55 PM,87.8,57.2,35,30.31,10.0,South,9.2,-,N/A,,Clear,190,2013-07-16 17:55:00
1:15 PM,87.8,57.2,35,30.31,10.0,South,8.1,-,N/A,,Clear,180,2013-07-16 18:15:00
1:35 PM,87.8,57.2,35,30.31,10.0,WSW,8.1,-,N/A,,Partly Cloudy,240,2013-07-16 18:35:00
1:55 PM,87.8,57.2,35,30.31,10.0,WSW,5.8,-,N/A,,Scattered Clouds,240,2013-07-16 18:55:00
2:15 PM,89.6,57.2,33,30.30,10.0,South,5.8,-,N/A,,Scattered Clouds,190,2013-07-16 19:15:00
2:35 PM,87.8,57.2,35,30.30,10.0,SW,6.9,-,N/A,,Mostly Cloudy,220,2013-07-16 19:35:00
2:55 PM,87.8,57.2,35,30.31,10.0,SW,4.6,-,N/A,,Mostly Cloudy,230,2013-07-16 19:55:00
3:15 PM,87.8,57.2,35,30.30,10.0,South,8.1,-,N/A,,Mostly Cloudy,190,2013-07-16 20:15:00
3:35 PM,89.6,55.4,31,30.29,10.0,SSW,4.6,-,N/A,,Scattered Clouds,210,2013-07-16 20:35:00
3:55 PM,89.6,55.4,31,30.29,10.0,SW,6.9,-,N/A,,Clear,230,2013-07-16 20:55:00
4:15 PM,89.6,57.2,33,30.29,10.0,SW,6.9,-,N/A,,Clear,220,2013-07-16 21:15:00
4:35 PM,91.4,55.4,29,30.28,10.0,South,5.8,-,N/A,,Partly Cloudy,180,2013-07-16 21:35:00
4:55 PM,89.6,55.4,31,30.28,10.0,SW,8.1,-,N/A,,Partly Cloudy,220,2013-07-16 21:55:00
5:15 PM,89.6,55.4,31,30.28,10.0,SSW,6.9,-,N/A,,Partly Cloudy,200,2013-07-16 22:15:00
5:35 PM,89.6,55.4,31,30.28,10.0,SW,5.8,-,N/A,,Partly Cloudy,230,2013-07-16 22:35:00
5:55 PM,89.6,55.4,31,30.28,10.0,SSW,4.6,-,N/A,,Clear,210,2013-07-16 22:55:00
6:15 PM,89.6,55.4,31,30.27,10.0,SSW,6.9,-,N/A,,Clear,210,2013-07-16 23:15:00
6:35 PM,87.8,55.4,33,30.27,10.0,SSW,5.8,-,N/A,,Clear,210,2013-07-16 23:35:00
6:55 PM,87.8,55.4,33,30.28,10.0,South,6.9,-,N/A,,Scattered Clouds,190,2013-07-16 23:55:00
7:15 PM,87.8,55.4,33,30.28,10.0,South,5.8,-,N/A,,Scattered Clouds,190,2013-07-17 00:15:00
7:35 PM,86.0,55.4,35,30.28,10.0,South,4.6,-,N/A,,Clear,190,2013-07-17 00:35:00
7:55 PM,84.2,55.4,37,30.28,10.0,South,5.8,-,N/A,,Clear,170,2013-07-17 00:55:00
8:15 PM,84.2,55.4,37,30.28,10.0,South,5.8,-,N/A,,Partly Cloudy,170,2013-07-17 01:15:00
8:35 PM,82.4,55.4,39,30.28,10.0,SSE,4.6,-,N/A,,Mostly Cloudy,160,2013-07-17 01:35:00
8:55 PM,82.4,55.4,39,30.29,10.0,SSE,4.6,-,N/A,,Scattered Clouds,160,2013-07-17 01:55:00
9:15 PM,82.4,55.4,39,30.29,10.0,South,5.8,-,N/A,,Partly Cloudy,170,2013-07-17 02:15:00
9:35 PM,80.6,55.4,42,30.30,10.0,South,4.6,-,N/A,,Clear,170,2013-07-17 02:35:00
9:55 PM,80.6,55.4,42,30.30,10.0,South,4.6,-,N/A,,Clear,180,2013-07-17 02:55:00
10:15 PM,78.8,55.4,44,30.31,10.0,South,5.8,-,N/A,,Clear,180,2013-07-17 03:15:00
10:35 PM,78.8,55.4,44,30.31,10.0,South,6.9,-,N/A,,Clear,190,2013-07-17 03:35:00
10:55 PM,77.0,55.4,47,30.31,10.0,South,5.8,-,N/A,,Clear,180,2013-07-17 03:55:00
11:15 PM,75.2,55.4,50,30.31,10.0,South,4.6,-,N/A,,Clear,190,2013-07-17 04:15:00
11:35 PM,75.2,55.4,50,30.31,10.0,South,4.6,-,N/A,,Clear,190,2013-07-17 04:35:00
11:55 PM,77.0,55.4,47,30.31,10.0,South,3.5,-,N/A,,Clear,180,2013-07-17 04:55:00